FW2472 Weather Reports


Display with metric or nautical units.
time (UTC)temp
F
wind
direction
speed
MPH
gust
MPH
rain 1hr
in
rain 24hr
in
rain mn
in
humidity
%
barometer
mb
20260507062704 59 89 0.0 0.0 0.00 0.00 0.00 52 1017.2
20260507062204 59 89 0.0 0.0 0.00 0.00 0.00 52 1017.3
20260507061705 60 89 0.0 1.0 0.00 0.00 0.00 52 1017.3
20260507055704 60 88 0.0 2.0 0.00 0.00 0.00 52 1017.4
20260507055204 60 89 0.0 2.0 0.00 0.00 0.00 52 1017.4
20260507054704 60 92 0.0 1.0 0.00 0.00 0.00 52 1017.3
20260507054204 60 94 1.0 3.0 0.00 0.00 0.00 52 1017.3
20260507053704 60 99 1.0 3.0 0.00 0.00 0.00 52 1017.3
20260507053205 60 82 1.0 2.0 0.00 0.00 0.00 52 1017.3
20260507052704 60 89 0.0 1.0 0.00 0.00 0.00 52 1017.3
20260507051704 60 94 0.0 0.0 0.00 0.00 0.00 52 1017.2
20260507050704 61 88 0.0 1.0 0.00 0.00 0.00 52 1017.2
20260507050204 61 88 0.0 0.0 0.00 0.00 0.00 52 1017.2
20260507044204 61 81 1.0 3.0 0.00 0.00 0.00 52 1017.2
20260507043705 61 93 1.0 3.0 0.00 0.00 0.00 52 1017.3
20260507043205 61 97 2.0 3.0 0.00 0.00 0.00 52 1017.2
20260507042704 61 95 2.0 6.0 0.00 0.00 0.00 52 1017.3
20260507042204 61 81 3.0 8.0 0.00 0.00 0.00 52 1017.2
20260507041704 62 85 2.0 6.0 0.00 0.00 0.00 52 1017.2
20260507041204 62 103 4.0 6.0 0.00 0.00 0.00 52 1017.2
20260507040704 62 95 2.0 6.0 0.00 0.00 0.00 52 1017.1
20260507040204 62 96 2.0 6.0 0.00 0.00 0.00 51 1017.1
20260507035704 62 97 2.0 5.0 0.00 0.00 0.00 51 1017.1
20260507035205 62 95 3.0 3.0 0.00 0.00 0.00 51 1017.0
20260507034704 62 99 1.0 3.0 0.00 0.00 0.00 51 1016.9
20260507034204 62 99 3.0 6.0 0.00 0.00 0.00 50 1016.9
20260507033705 63 90 1.0 3.0 0.00 0.00 0.00 50 1016.9
20260507033204 63 86 3.0 6.0 0.00 0.00 0.00 50 1016.8
20260507032704 63 86 3.0 6.0 0.00 0.00 0.00 50 1016.7
20260507032204 63 90 2.0 6.0 0.00 0.00 0.00 50 1016.6
20260507031204 63 95 3.0 7.0 0.00 0.00 0.00 49 1016.5
20260507030704 64 88 3.0 8.0 0.00 0.00 0.00 49 1016.5
20260507030204 64 103 3.0 7.0 0.00 0.00 0.00 48 1016.4
20260507025704 64 92 5.0 7.0 0.00 0.00 0.00 48 1016.4
20260507025204 64 86 4.0 6.0 0.00 0.00 0.00 48 1016.3
20260507024204 65 100 5.0 7.0 0.00 0.00 0.00 47 1016.2
20260507023705 65 108 5.0 8.0 0.00 0.00 0.00 46 1016.1
20260507023204 65 106 3.0 9.0 0.00 0.00 0.00 46 1016.2
20260507022704 66 109 4.0 8.0 0.00 0.00 0.00 46 1016.1
20260507022204 66 102 4.0 7.0 0.00 0.00 0.00 45 1016.1
20260507021703 66 116 5.0 9.0 0.00 0.00 0.00 45 1016.1
20260507021204 66 107 3.0 8.0 0.00 0.00 0.00 45 1016.0
20260507020704 67 128 5.0 9.0 0.00 0.00 0.00 45 1016.0
20260507020204 67 123 5.0 10.0 0.00 0.00 0.00 45 1015.8
20260507015704 67 110 3.0 12.0 0.00 0.00 0.00 44 1015.9
20260507015204 68 124 4.0 12.0 0.00 0.00 0.00 44 1015.8
20260507014705 68 99 6.0 10.0 0.00 0.00 0.00 43 1015.8
20260507014204 68 140 5.0 9.0 0.00 0.00 0.00 43 1015.8
20260507013705 68 133 6.0 10.0 0.00 0.00 0.00 43 1015.7
20260507012704 69 146 3.0 8.0 0.00 0.00 0.00 43 1015.7
20260507012204 69 143 4.0 8.0 0.00 0.00 0.00 42 1015.6
20260507011705 69 142 5.0 12.0 0.00 0.00 0.00 42 1015.6
20260507011204 69 108 5.0 12.0 0.00 0.00 0.00 41 1015.6
20260507010704 69 109 5.0 10.0 0.00 0.00 0.00 41 1015.5
20260507010204 70 101 5.0 9.0 0.00 0.00 0.00 40 1015.6
20260507005704 70 147 4.0 12.0 0.00 0.00 0.00 41 1015.5
20260507005204 70 125 3.0 8.0 0.00 0.00 0.00 40 1015.5
20260507004704 71 141 6.0 10.0 0.00 0.00 0.00 40 1015.6
20260507004204 70 123 6.0 9.0 0.00 0.00 0.00 40 1015.5
20260507003704 71 137 4.0 12.0 0.00 0.00 0.00 40 1015.6
20260507003204 71 130 5.0 10.0 0.00 0.00 0.00 40 1015.5
20260507002705 71 125 6.0 12.0 0.00 0.00 0.00 39 1015.5
20260507002204 71 189 3.0 9.0 0.00 0.00 0.00 39 1015.4
20260507001704 71 129 3.0 12.0 0.00 0.00 0.00 39 1015.4
20260507001203 71 145 5.0 12.0 0.00 0.00 0.00 39 1015.5
20260507000205 71 111 7.0 10.0 0.00 0.00 0.00 37 1015.4
20260506235704 71 156 5.0 10.0 0.00 0.00 0.00 37 1015.4
20260506235204 71 122 6.0 12.0 0.00 0.00 0.00 36 1015.4
20260506234704 71 136 5.0 12.0 0.00 0.00 0.00 37 1015.4
20260506233704 71 148 6.0 12.0 0.00 0.00 0.00 36 1015.4
20260506233204 71 154 4.0 10.0 0.00 0.00 0.00 36 1015.4
20260506232704 72 141 5.0 12.0 0.00 0.00 0.00 35 1015.5
20260506232204 72 119 7.0 12.0 0.00 0.00 0.00 35 1015.5
20260506231704 72 138 7.0 13.0 0.00 0.00 0.00 34 1015.5
20260506230704 72 125 6.0 12.0 0.00 0.00 0.00 34 1015.4
20260506230204 73 146 6.0 10.0 0.00 0.00 0.00 33 1015.6
20260506225704 73 149 4.0 12.0 0.00 0.00 0.00 34 1015.5
20260506224704 72 194 3.0 13.0 0.00 0.00 0.00 35 1015.7
20260506224205 72 108 6.0 15.0 0.00 0.00 0.00 35 1015.8
20260506223705 72 110 6.0 12.0 0.00 0.00 0.00 35 1015.9
20260506223204 72 133 6.0 12.0 0.00 0.00 0.00 35 1015.9
20260506222705 73 120 5.0 12.0 0.00 0.00 0.00 36 1015.9
20260506221705 73 112 4.0 14.0 0.00 0.00 0.00 35 1016.1
20260506221204 73 129 3.0 9.0 0.00 0.00 0.00 35 1016.2
20260506220704 73 142 8.0 13.0 0.00 0.00 0.00 35 1016.2
20260506220205 73 143 3.0 10.0 0.00 0.00 0.00 35 1016.2
20260506215704 73 157 3.0 9.0 0.00 0.00 0.00 36 1016.2
20260506215204 73 118 6.0 10.0 0.00 0.00 0.00 36 1016.3
20260506214704 72 131 5.0 8.0 0.00 0.00 0.00 37 1016.3
20260506214204 72 173 5.0 10.0 0.00 0.00 0.00 37 1016.4
20260506213705 71 117 7.0 12.0 0.00 0.00 0.00 38 1016.4
20260506213204 72 132 7.0 15.0 0.00 0.00 0.00 37 1016.5
20260506212704 72 152 4.0 12.0 0.00 0.00 0.00 38 1016.4
20260506212204 72 106 4.0 12.0 0.00 0.00 0.00 38 1016.5
20260506211704 71 110 5.0 12.0 0.00 0.00 0.00 38 1016.7
20260506211204 71 135 5.0 10.0 0.00 0.00 0.00 38 1016.7
20260506210704 71 148 3.0 10.0 0.00 0.00 0.00 39 1016.7
20260506210204 71 111 6.0 12.0 0.00 0.00 0.00 39 1016.7
20260506205704 71 118 10.0 16.0 0.00 0.00 0.00 39 1016.6
20260506205206 71 131 5.0 12.0 0.00 0.00 0.00 39 1016.7
20260506204205 72 120 6.0 12.0 0.00 0.00 0.00 37 1016.7
20260506203704 73 116 5.0 10.0 0.00 0.00 0.00 36 1016.6
20260506203204 73 153 3.0 9.0 0.00 0.00 0.00 36 1016.6
20260506202704 73 152 4.0 8.0 0.00 0.00 0.00 36 1016.8
20260506201704 72 201 3.0 8.0 0.00 0.00 0.00 36 1016.9
20260506201204 72 211 4.0 8.0 0.00 0.00 0.00 35 1017.0
20260506200204 72 121 2.0 9.0 0.00 0.00 0.00 35 1017.1
20260506195704 71 160 5.0 9.0 0.00 0.00 0.00 35 1017.2
20260506195205 71 209 3.0 6.0 0.00 0.00 0.00 34 1017.3
20260506194704 70 97 0.0 6.0 0.00 0.00 0.00 35 1017.3
20260506194205 71 213 5.0 9.0 0.00 0.00 0.00 34 1017.3
20260506193704 71 171 3.0 7.0 0.00 0.00 0.00 36 1017.3
20260506193204 70 205 3.0 5.0 0.00 0.00 0.00 36 1017.4
20260506192204 71 124 2.0 8.0 0.00 0.00 0.00 35 1017.4
20260506191704 70 193 2.0 8.0 0.00 0.00 0.00 36 1017.5
20260506191205 70 203 3.0 8.0 0.00 0.00 0.00 36 1017.6
20260506190704 70 276 3.0 8.0 0.00 0.00 0.00 35 1017.7
20260506190204 70 151 1.0 6.0 0.00 0.00 0.00 36 1017.7
20260506185204 69 171 2.0 8.0 0.00 0.00 0.00 38 1017.8
20260506184704 69 165 4.0 9.0 0.00 0.00 0.00 38 1017.9
20260506183704 69 140 4.0 10.0 0.00 0.00 0.00 37 1018.2
20260506183204 68 194 3.0 7.0 0.00 0.00 0.00 37 1018.2
20260506182704 68 187 4.0 9.0 0.00 0.00 0.00 37 1018.2
20260506182204 68 82 4.0 9.0 0.00 0.00 0.00 37 1018.2
20260506181705 67 269 1.0 6.0 0.00 0.00 0.00 39 1018.1
20260506181204 67 110 2.0 7.0 0.00 0.00 0.00 38 1018.2
20260506180704 67 187 3.0 8.0 0.00 0.00 0.00 38 1018.1
20260506180204 67 156 2.0 9.0 0.00 0.00 0.00 39 1018.1
20260506175204 67 112 3.0 6.0 0.00 0.00 0.00 38 1018.2
20260506174705 67 161 2.0 7.0 0.00 0.00 0.00 39 1018.1
20260506174204 67 214 2.0 6.0 0.00 0.00 0.00 39 1018.1
20260506173204 66 180 3.0 7.0 0.00 0.00 0.00 40 1018.1
20260506172704 66 273 2.0 3.0 0.00 0.00 0.00 39 1018.1
20260506172204 65 169 3.0 7.0 0.00 0.00 0.00 40 1018.1
20260506171204 64 176 2.0 6.0 0.00 0.00 0.00 42 1018.2
20260506170704 64 147 3.0 7.0 0.00 0.00 0.00 42 1018.2
20260506170204 64 109 5.0 9.0 0.00 0.00 0.00 42 1018.1
20260506165704 64 135 0.0 2.0 0.00 0.00 0.00 43 1018.1
20260506165204 63 142 3.0 10.0 0.00 0.00 0.00 42 1018.1
20260506164704 63 124 1.0 5.0 0.00 0.00 0.00 43 1018.1
20260506164204 63 103 3.0 8.0 0.00 0.00 0.00 42 1018.2
20260506163704 63 128 3.0 8.0 0.00 0.00 0.00 42 1018.2
20260506163204 62 142 3.0 9.0 0.00 0.00 0.00 44 1018.2
20260506162704 62 53 1.0 3.0 0.00 0.00 0.00 44 1018.2
20260506162204 62 178 3.0 8.0 0.00 0.00 0.00 43 1018.3
20260506161705 62 108 3.0 8.0 0.00 0.00 0.00 43 1018.2
20260506161204 61 119 1.0 3.0 0.00 0.00 0.00 44 1018.2
20260506160705 60 97 0.0 3.0 0.00 0.00 0.00 44 1018.2
20260506160204 60 161 3.0 8.0 0.00 0.00 0.00 44 1018.3
20260506155704 60 137 5.0 9.0 0.00 0.00 0.00 43 1018.3
20260506154704 60 144 1.0 3.0 0.00 0.00 0.00 42 1018.3
20260506153704 59 155 2.0 6.0 0.00 0.00 0.00 42 1018.4
20260506153204 59 134 1.0 5.0 0.00 0.00 0.00 43 1018.4
20260506152704 59 115 2.0 5.0 0.00 0.00 0.00 43 1018.4
20260506152205 59 14 1.0 3.0 0.00 0.00 0.00 43 1018.4
20260506151704 59 138 1.0 3.0 0.00 0.00 0.00 43 1018.4
20260506151204 59 45 1.0 3.0 0.00 0.00 0.00 43 1018.4
20260506150205 58 68 0.0 2.0 0.00 0.00 0.00 44 1018.3
20260506145704 58 107 2.0 3.0 0.00 0.00 0.00 43 1018.3
20260506145204 58 103 3.0 6.0 0.00 0.00 0.00 43 1018.3
20260506144705 58 104 2.0 3.0 0.00 0.00 0.00 43 1018.3
20260506144203 58 94 2.0 3.0 0.00 0.00 0.00 42 1018.2
20260506143705 58 104 1.0 3.0 0.00 0.00 0.00 42 1018.2
20260506143204 58 345 0.0 0.0 0.00 0.00 0.00 41 1018.2
20260506142704 57 297 0.0 0.0 0.00 0.00 0.00 41 1018.1
20260506142204 57 61 0.0 0.0 0.00 0.00 0.00 41 1018.2
20260506141705 56 74 0.0 0.0 0.00 0.00 0.00 42 1018.1
20260506141204 55 74 0.0 0.0 0.00 0.00 0.00 44 1018.2
20260506140704 54 74 0.0 0.0 0.00 0.00 0.00 44 1018.1
20260506140204 54 74 0.0 0.0 0.00 0.00 0.00 45 1018.1
20260506135704 53 74 0.0 0.0 0.00 0.00 0.00 45 1018.1
20260506135204 52 74 0.0 0.0 0.00 0.00 0.00 45 1018.0
20260506134704 52 74 0.0 0.0 0.00 0.00 0.00 46 1018.0
20260506133704 51 74 0.0 0.0 0.00 0.00 0.00 45 1018.0
20260506133204 51 74 0.0 0.0 0.00 0.00 0.00 45 1017.8
20260506132205 51 74 0.0 0.0 0.00 0.00 0.00 45 1017.6
20260506131704 51 74 0.0 0.0 0.00 0.00 0.00 45 1017.6
20260506131204 51 74 0.0 0.0 0.00 0.00 0.00 44 1017.6
20260506130705 51 74 0.0 0.0 0.00 0.00 0.00 44 1017.5
20260506130204 51 74 0.0 0.0 0.00 0.00 0.00 44 1017.4
20260506125704 51 74 0.0 0.0 0.00 0.00 0.00 44 1017.4
20260506125204 51 74 0.0 0.0 0.00 0.00 0.00 44 1017.5
20260506124704 51 74 0.0 0.0 0.00 0.00 0.00 44 1017.4
20260506124204 51 74 0.0 0.0 0.00 0.00 0.00 44 1017.4
20260506123204 51 74 0.0 0.0 0.00 0.00 0.00 44 1017.3
20260506122704 51 74 0.0 0.0 0.00 0.00 0.00 44 1017.3
20260506122204 51 74 0.0 0.0 0.00 0.00 0.00 44 1017.2
20260506120704 51 74 0.0 0.0 0.00 0.00 0.00 45 1017.2
20260506120205 51 74 0.0 0.0 0.00 0.00 0.00 45 1017.2
20260506115704 52 74 0.0 0.0 0.00 0.00 0.00 45 1017.2
20260506114704 52 74 0.0 0.0 0.00 0.00 0.00 45 1017.2
20260506113704 52 74 0.0 0.0 0.00 0.01 0.00 46 1017.1
20260506113204 52 82 0.0 0.0 0.00 0.01 0.00 46 1017.1
20260506112204 52 82 0.0 0.0 0.00 0.01 0.00 47 1017.1
20260506111204 52 82 0.0 0.0 0.00 0.01 0.00 46 1017.1
20260506110704 52 82 0.0 0.0 0.00 0.01 0.00 46 1017.1
20260506110205 52 82 0.0 0.0 0.00 0.01 0.00 47 1017.1
20260506105704 52 82 0.0 0.0 0.00 0.01 0.00 46 1017.1
20260506105204 52 82 0.0 0.0 0.00 0.01 0.00 46 1017.1
20260506104705 52 82 0.0 0.0 0.00 0.02 0.00 46 1017.2
20260506104206 53 82 0.0 0.0 0.00 0.02 0.00 46 1017.2
20260506103704 52 82 0.0 0.0 0.00 0.03 0.00 46 1017.2
20260506103205 52 82 0.0 0.0 0.00 0.03 0.00 46 1017.2
20260506102704 52 82 0.0 0.0 0.00 0.03 0.00 46 1017.1
20260506102205 52 82 0.0 0.0 0.00 0.03 0.00 46 1017.2
20260506101704 52 82 0.0 0.0 0.00 0.03 0.00 46 1017.2
20260506101204 52 82 0.0 0.0 0.00 0.03 0.00 47 1017.2
20260506100704 52 82 0.0 0.0 0.00 0.03 0.00 46 1017.2
20260506100204 52 82 0.0 0.0 0.00 0.03 0.00 47 1017.2
20260506095704 52 82 0.0 0.0 0.00 0.03 0.00 47 1017.3
20260506095204 52 82 0.0 0.0 0.00 0.03 0.00 47 1017.4
20260506094704 52 82 0.0 0.0 0.00 0.03 0.00 47 1017.3
20260506093708 52 82 0.0 0.0 0.00 0.03 0.00 46 1017.3
20260506093204 52 82 0.0 0.0 0.00 0.03 0.00 46 1017.3
20260506092704 53 82 0.0 0.0 0.00 0.03 0.00 45 1017.3
20260506092204 53 82 0.0 0.0 0.00 0.03 0.00 45 1017.3
20260506091204 53 82 0.0 0.0 0.00 0.03 0.00 45 1017.3
20260506090204 54 86 0.0 1.0 0.00 0.04 0.00 44 1017.3
20260506085704 54 85 0.0 2.0 0.00 0.05 0.00 44 1017.3
20260506085204 54 90 0.0 2.0 0.00 0.06 0.00 44 1017.3
20260506084704 54 58 1.0 3.0 0.00 0.06 0.00 44 1017.3
20260506084204 54 83 2.0 3.0 0.00 0.06 0.00 44 1017.4
20260506083704 54 59 1.0 3.0 0.00 0.07 0.00 44 1017.5
20260506083204 54 61 2.0 6.0 0.00 0.07 0.00 44 1017.4
20260506082204 54 82 2.0 5.0 0.00 0.08 0.00 45 1017.4
20260506081704 54 74 2.0 5.0 0.00 0.08 0.00 46 1017.4
20260506081204 54 78 3.0 5.0 0.00 0.08 0.00 46 1017.5
20260506080705 54 89 2.0 6.0 0.00 0.08 0.00 47 1017.5
20260506080204 54 91 0.0 3.0 0.00 0.08 0.00 47 1017.5
20260506073204 54 82 2.0 3.0 0.00 0.08 0.00 48 1017.5
20260506072704 54 100 3.0 8.0 0.00 0.08 0.00 48 1017.5
20260506072204 54 90 2.0 3.0 0.00 0.08 0.00 48 1017.5
20260506071704 54 98 2.0 7.0 0.00 0.08 0.00 48 1017.5
20260506071204 54 76 3.0 6.0 0.00 0.08 0.00 48 1017.6
20260506070704 54 87 2.0 3.0 0.00 0.08 0.00 49 1017.6
20260506070204 54 85 2.0 3.0 0.00 0.08 0.00 49 1017.6